Погода в Цветочном

Россия / Омская область     53°39′53″N   74°03′23″E
темп.,
°C
ветер,
м/с
пор.,
м/с
влажн.,
%
обл.,
%
осадки,
мм/ч
давл.,
гПа
погр.,
м
21 июня, пн
пн2100:00+11ссз816784 8.2 999475
03:00+9зсз61281100 0.0 1000352
06:00+8сз6988100 0.1 1001681
09:00+7зсз6786100 0.6 1003626
12:00+11зсз456175 0.7 10041205
15:00+12сз7767100 0.1 10061104
18:00+10с61385100 0.6 10081102
21:00+11с71480100 0.1 10091103
22 июня, вт
вт2200:00+11ссз51187100 0.3 1011463
03:00+9ссз6129223 0.2 1011309
06:00+10ссз6118828 0.2 1013438
09:00+14ссз686778 0.0 1014830
12:00+16с784960 0.4 10151849
15:00+17сз674396 0.2 10151910
18:00+18сз4644100 0.2 10152122
21:00+14ссз356781 0.2 1016173
23 июня, ср
ср2300:00+13з2269100 0.3 101524
03:00+12з2373100 0.1 101354
06:00+10с5890100 1.1 1013332
09:00+10ссв3591100 6.1 1012258
12:00+12св7871100 7.3 1013913
15:00+14с676190 0.8 10121327
18:00+14ссв71064100 2.0 10121455
21:00+12с712795 1.0 1013601
24 июня, чт
чт2400:00+10с612905 1.0 1014434
03:00+8с512915 0.0 1014309
06:00+8ссз5108916 0.0 1016330
09:00+12с696975 0.1 1016674
12:00+15с895272 0.6 10161890
15:00+15с695489 0.1 10161646
18:00+15ссз78537 0.3 10171444
21:00+12ссз476688 0.1 1018145
25 июня, пт
пт2500:00+11сз377125 0.1 1018145
03:00+9зсз347699 0.0 101758
06:00+11з3573100 0.0 1018154
09:00+12юз4868100 0.0 1017348
12:00+17з6851100 0.0 1015990
15:00+18з7846100 0.0 10141251
18:00+15з5860100 0.1 1014504
21:00+13ююз51169100 0.5 1012529